Погода в Павлодаре

Погода в Павлодаре : погода сейчас, прогноз погоды и архив. Всё, что Вы хотите узнать о погоде в Павлодаре!

Поиск расширенной информации на нашем сайте:

Другие новости

Новости СМИ2

Главная страница сайта

Новости сайта

03.07.2017

Напоминаем, что на нашем специализированном сайте Метеоцентр.Азия вы можете получить высокодетализированные автоматические прогнозы погоды по пунктам России, СНГ и мира в авиационном формате (включающие направление и скорость ветра, видимость, явления погоды, количество и форму облачности, нижнюю и верхнюю границу облачности).

Рекомендуем: http://vengriya-opt.com.ua/ купить нижнее белье оптом.

Погода в Павлодаре - сегодня

Время (UTC), дата Ветер
(°,м/с) 
Видим.   Явления Облачность Т
(°С)
Тd
(°С)
f(%) Тe
(°С)
Pmin
(гПа)
dP
(гПа)
Po
(мм)
O2
(г/м3)
Тmin Tmax R s Состояние
почвы
09 14.06.18 310 (СЗ) 20000 м    6/5 600 м кучево-дожд., средняя 
[Cb cap|Ac trans]
+20.6 +4.9 36 +21  1012.7  0.5  749  280           
12 14.06.18 320 (СЗ) 20000 м    8/5 1000 м кучево-дожд., средняя, верхняя 
[Cb cap|Ac trans|Ci fib]
+21.1 +5.4 36 +21  1013  0.3  749  279           
15 14.06.18 180 (Ю) 20000 м    8/3 1000 м кучево-дожд., верхняя 
[Cb cap|Ci fib]
+17.8 +8.8 56 +19  1013.4  0.2  749  282    +21.8       
18 14.06.18 170 (Ю) 20000 м    6/1 1000 м кучево-дожд., верхняя 
[Cb cap|Ci fib]
+13.2 +8.4 73 +14  1013.7  0.1  750  287    +21.8       
21 14.06.18 170 (Ю) 20000 м    9/8 600 м кучево-дожд., средняя 
[Cb cap|Ac trans]
+11.4 +9.2 86 +13  1013.3  -0.5  749  288           
00 15.06.18 170 (Ю) 20000 м    6/3 1000 м кучево-дожд., средняя, верхняя 
[Cb cap|Ac trans|Ci fib]
+11.5 +9.5 88 +13  1013  -0.2  749  288           
06 15.06.18 270 (З) 20000 м    8/1 1000 м кучево-дожд., средняя, верхняя 
[Cb calv|Ac trans|Ci fib]
+25.9 +7.5 31 +26  1010.2  1.2  747  274  +11         
09 15.06.18 230 (ЮЗ) 20000 м    8/3 1000 м кучево-дожд., средняя 
[Cb calv|Ac trans]
+26.2 +5.4 26 +26  1010  -0.2  747  274           
12 15.06.18 290 (З) 20000 м    9/5 600 м средняя 
[Sc diur, vesp|Ac trans]
+25.7 +8.1 33 +26  1009.4  -0.7  747  274           
15 15.06.18 200 (Ю) 20000 м    6/3 600 м кучево-дожд., средняя, верхняя 
[Cb cap|Ac trans|Ci fib]
+20.8 +11.2 54 +24  1009.2  -0.3  747  277    +27.3       
18 15.06.18 210 (ЮЗ) 20000 м    8/8 600 м кучево-дожд. 
[Cb cap]
+18.2 +10 59 +20  1009.3  -0.1  746  280    +27.3       
21 15.06.18 210 (ЮЗ) 20000 м    10/10 600 м кучево-дожд. 
[Cb cap]
+18.8 +10.3 58 +22  1008.9  -0.3  746  279           
03 16.06.18 340 (С) 20000 м  {гроза, ливн. осадки}  9/8 600 м кучево-дожд., средняя 
[Cb cap|Ac trans]
+16.1 +11.9 76 +20  1009.5  1.7  747  282      0.0     
09 16.06.18 280 (З) 20000 м    8/6 600 м кучево-дожд., средняя 
[Cb cap|Ac trans]
+22.3 +10.7 48 +24  1010.6  -0.3  748  277           
12 16.06.18 320 (СЗ) 20000 м    9/8 1000 м кучево-дожд., средняя 
[Cb calv|Ac trans]
+20.1 +12.1 60 +24  1010.9  0.2  748  278           
15 16.06.18 тихо ()   20000 м    8/5 1000 м кучево-дожд., средняя 
[Cb cap|Ac trans]
+18.4 +13.5 73 +25  1010.5  -0.5  747  279    +23.3       
18 16.06.18 330 (СЗ) 20000 м    8/8 600 м кучево-дожд. 
[Cb cap]
+16 +11.4 74 +20  1010.8  0.2  748  282    +23.3       
21 16.06.18 010 (С) 20000 м  {гроза}  4/3 1000 м кучево-дожд., верхняя 
[Cb cap|Ci fib]
+12.6 +11.3 92 +17  1009.3  -1.6  746  285           
06 17.06.18 110 (В) 20000 м    8/0 средняя, верхняя 
[Ac trans|Ci fib]
+25 +13.2 48 +31  1004.5  -1.4  743  272  +12         
09 17.06.18 210 (ЮЗ) 20000 м    8/3 600 м средняя, верхняя 
[Cu hum|Ac trans|Ci fib]
+28.1 +14.4 43 +36  1002.5  -1.8  742  268           
12 17.06.18 270 (З) 20000 м    8/3 600 м средняя, верхняя 
[Cu hum|Ac trans|Ci fib]
+29.1 +14.1 40 +37  1001.1  -1.3  741  267           
21 17.06.18 020 (С) 20000 м  {гроза, ливн. осадки}  8/3 1000 м кучево-дожд., средняя 
[Cb cap|Ac trans]
+14.4 +10.6 78 +17  1004.8  0.4  743  282           
09 18.06.18 320 (СЗ) 10 км  слаб. ливневой дождь  9/8 600 м кучево-дожд., средняя, верхняя 
[Cb cap|Ac trans|Ci fib]
+19.3 +12.4 64 +24  1003.7  1.5  742  277           
21 18.06.18 тихо ()   10 км  слаб. ливневой дождь  9/8 600 м кучево-дожд., средняя 
[Cb cap|Ac trans]
+14.4 +11.4 82 +18  999.7  -0.3  739  281           
03 19.06.18 100 (В) 20000 м  {гроза, ливн. осадки}  10/8 600 м кучево-дожд., средняя 
[Cb cap|Ac trans]
+20.3 +16 76 +31  992.2  -3.5  734  272      0.7     
Время (UTC), дата Ветер
(°,м/с) 
Видим.   Явления Облачность Т
(°С)
Тd
(°С)
f(%) Тe
(°С)
Pmin
(гПа)
dP
(гПа)
Po
(мм)
O2
(г/м3)
Тmin Tmax R s Состояние
почвы

Для получения пояснительной информации подведите курсор к названию столбца.

ПОГОДА в Павлодаре - архив

Всё, что Вы хотите узнать о погоде в Павлодаре - удобно и подробно!

Выберите нужную дату (начиная с 1 января 2015* года) и нажмите кнопку "Найти".
Будут отображены архивные сводки погоды по пункту Павлодар, начиная с указанной даты.


Отображать данные в формате CSV (для использования в таблицах Excel)


Внимание! Наш архив погоды предназначен исключительно для личного некоммерческого использования в познавательных целях. Если Вам необходимы официальные справки о состоянии погоды (для производственных, юридических, коммерческих и т.п. целей), обращайтесь в органы Росгидромета.

*Примечание: данная дата относится к архиву по метеостанциям СССР (Россия, СНГ, Балтия).
Архив по метеостанциям Зарубежной Европы и Азии (кроме Китая) хранится 10 дней, по другим регионам земного шара (Китай, Африка, Америка, Австралия, Океания) - 1 день.

Павлодар - район местоположения метеостанции


Название, широта, долгота, высота метеостанции:
Павлодар 52.1°ш. 77.1°д. 125 м над ур. моря [Казахстан]

Дополнительная информация

В oтличие oт бoльшинства пoгoдных сайтoв мы публикуем пoдрoбную метеoинфoрмацию в детальнoм прoфессиoнальнoм фoрмате.

Характеристики температуры и влажнoсти вoздуха измеряются на высoте 2 м в тени вдали oт зданий и деревьев.
Скoрoсть ветра измеряется на высoте 10 м (на урoвне рoста челoвека скoрoсть ветра ниже в 1.5-2 раза). Если метеoстанция нахoдится в гoрoде или в лесу, тo скoрoсть ветра занижена на 2-4 м/с пo сравнению с oткрытым местoм. Скoрoсть ветра над акватoриями крупных рек и oзёр, а также на вершинах хoлмoв на 2-5 м/с выше, чем в oбычных услoвиях.
Атмoсфернoе давление в разных тoчках местнoсти мoжет значительнo oтличаться oт давления на метеoстанции, в зависимoсти oт услoвий рельефа (при пoдъёме на 10 м давление пoнижается примернo на 1 мм рт.ст.).